Main page
METAR-TAF:

METAR-TAF

Airports :

Bojnord Airport

Bojnourd, Iran

latitude: 37-28N, longitude: 057-20E, elevation: 1074 m

Current weather observation

The report was made 40 minutes ago, at 15:00 UTC
Wind 10 kt from the West/Northwest
Temperature 24°C
Humidity 41%
Pressure 1014 hPa
Visibility 10 km or more
Few clouds at a height of 3000 ft
Broken clouds at a height of 9000 ft

METAR: OIMN 201500Z 30010KT 9999 FEW030 BKN090 24/10 Q1014

Time: 20:10 (15:40 UTC)


TAF: missing

Weather observations and forecasts of more than 4000 airports (METAR and TAF reports).

The available stations are represented by yellow and red dots on the map.

Hover mouse over dot to see the name of the station.

Then click to see weather observations and forecasts.

To change the map : click on the green buttons with a black cross to zoom in, on the green button with a dash to zoom out, or on the green arrows for adjacent maps.


METAR-TAF: